Weather observations for the past three days for
Litchfield Municipal Airport
Imperial (Metric)
Date Time (cdt) Wind (mph) Vis. (mi.) Weather Sky Cond. Temperature (ºF) Relative Humidity Wind Chill (°F) Heat Index (°F) Pressure Precipitation (in)
Air Dwpt 6 hour altimeter (in) sea level (mb) 1 hr 3 hr 6 hr
Max. Min.
15 19:35 S 10 10.00 Fair CLR 85.5 72.5 65% 92 29.8 0.0
15 19:15 S 12 10.00 Fair CLR 86.5 73 64% 94 29.8 0.0
15 18:55 S 12 G 16 10.00 Fair CLR 87.3 73.8 91.4 87.1 64% 95 29.8 0.0
15 18:35 S 10 10.00 Fair CLR 87.4 74.8 66% 97 29.81 0.0
15 18:15 S 12 10.00 Fair CLR 88.5 75.6 66% 99 29.81 0.0
15 17:55 S 10 10.00 Fair CLR 89.1 74.1 61% 98 29.82 0.0
15 17:35 S 12 10.00 Fair CLR 89.6 74.7 62% 100 29.83 0.0
15 17:15 S 12 10.00 Fair CLR 89.8 76.1 64% 102 29.84 0.0
15 16:55 S 10 10.00 Fair CLR 90.1 75.2 62% 101 29.84 0.0
15 16:35 S 10 10.00 Fair CLR 90.5 76.3 63% 103 29.85 0.0
15 16:15 S 13 G 16 10.00 Partly Cloudy SCT050 90.7 75.6 61% 102 29.86 0.0
15 15:55 S 10 10.00 Fair CLR 90.9 76.5 63% 104 29.86 0.0
15 15:35 S 9 10.00 Fair CLR 90.5 76.6 64% 103 29.86 0.0
15 15:15 S 12 10.00 Fair CLR 90.7 76.8 64% 104 29.87 0.0
15 14:55 S 10 10.00 Fair CLR 90.7 75.4 61% 102 29.88 0.0
15 14:35 SW 10 10.00 Fair CLR 90.9 75.4 61% 102 29.89 0.0
15 14:15 SW 14 G 17 10.00 Fair CLR 90.5 73.9 58% 100 29.89 0.0
15 13:55 SW 9 10.00 Fair CLR 90.3 73.4 58% 99 29.89 0.0
15 13:35 SW 12 10.00 Fair CLR 90.5 74.1 59% 100 29.9 0.0
15 13:15 SW 10 10.00 Fair CLR 89.8 73.8 59% 99 29.91 0.0
15 12:55 SW 10 10.00 Fair CLR 89.6 73.9 89.6 75.6 60% 99 29.92 0.0
15 12:35 SW 10 10.00 Fair CLR 88.9 73.6 61% 97 29.92 0.0
15 12:15 SW 12 10.00 Fair CLR 88.2 74.1 63% 97 29.93 0.0
15 11:55 SW 9 10.00 Fair CLR 87.8 74.7 65% 97 29.93 0.0
15 11:35 SW 8 10.00 Fair CLR 86.9 73.6 65% 95 29.93 0.0
15 11:15 SW 14 G 17 10.00 Fair CLR 86.4 72.9 64% 93 29.94 0.0
15 10:55 SW 10 10.00 Fair CLR 86 72.7 65% 93 29.94 0.0
15 10:35 SW 10 10.00 Fair CLR 84.9 73 68% 92 29.94 0.0
15 10:15 SW 13 G 16 10.00 Fair CLR 84.2 72.7 68% 90 29.94 0.0
15 09:55 SW 13 10.00 Fair CLR 83.1 72.9 71% 89 29.93 0.0
15 09:35 SW 12 G 18 10.00 Fair CLR 82.6 72.5 72% 88 29.94 0.0
15 09:15 SW 13 G 17 10.00 Fair CLR 81.3 71.8 73% 86 29.94 0.0
15 08:55 SW 14 10.00 Fair CLR 80.4 71.6 75% 84 29.94 0.0
15 08:35 SW 10 10.00 Fair CLR 79.7 71.2 75% 83 29.94 0.0
15 08:15 SW 10 10.00 Fair CLR 79.2 71.6 78% 82 29.94 0.0
15 07:55 S 8 10.00 Fair CLR 78.3 72 81% 81 29.94 0.0
15 07:35 S 8 10.00 Fair CLR 77 71.2 82% 78 29.94 0.0
15 07:15 S 9 10.00 Fair CLR 76.5 71.2 84% 77 29.94 0.0
15 06:55 S 9 10.00 Fair CLR 75.6 71.2 76.3 73.4 87% 76 29.94 0.0
15 06:35 S 8 10.00 Fair CLR 74.5 71.4 90% 29.94 0.0
15 06:15 S 7 10.00 Fair CLR 74.3 71.4 91% 29.94 0.0
15 05:55 S 7 10.00 Fair CLR 74.3 71.4 91% 29.94 0.0
15 05:35 S 8 10.00 Partly Cloudy SCT065 SCT075 74.3 71.6 91% 29.95 0.0
15 05:15 S 6 10.00 Partly Cloudy SCT065 SCT075 SCT090 74.3 71.6 91% 29.96 0.0
15 04:55 S 7 10.00 Mostly Cloudy SCT065 SCT075 BKN090 74.8 71.6 90% 29.96 0.0
15 04:35 S 7 10.00 Mostly Cloudy BKN065 BKN075 74.7 71.8 91% 29.96 0.0
15 04:15 S 6 10.00 Partly Cloudy SCT065 SCT075 74.3 71.6 91% 29.97 0.0
15 03:55 S 7 10.00 Partly Cloudy SCT060 SCT075 74.5 71.6 91% 29.96 0.0
15 03:35 S 7 10.00 Mostly Cloudy BKN060 74.3 71.6 91% 29.96 0.0
15 03:15 S 6 10.00 Mostly Cloudy BKN060 74.3 71.6 91% 29.96 0.0
15 02:55 S 6 10.00 Partly Cloudy SCT060 73.8 71.4 92% 29.96 0.0
15 02:35 S 6 10.00 Partly Cloudy SCT060 73.8 71.2 92% 29.96 0.0
15 02:15 S 6 10.00 Fair CLR 74.3 71.2 90% 29.96 0.0
15 01:55 S 7 10.00 Fair CLR 74.3 71.4 91% 29.96 0.0
15 01:35 S 7 10.00 Fair CLR 74.5 71.1 89% 29.95 0.0
15 01:15 S 6 10.00 Fair CLR 75.4 71.2 87% 75 29.96 0.0
15 00:55 S 9 10.00 Fair CLR 76.3 71.6 85.3 76.1 86% 77 29.95 0.0
15 00:35 S 9 10.00 Fair CLR 76.3 72.1 87% 77 29.96 0.0
15 00:15 S 9 10.00 Fair CLR 76.1 72.5 89% 76 29.97 0.0
14 23:55 S 6 10.00 Fair CLR 77.4 72.5 85% 79 29.97 0.0
14 23:35 S 8 10.00 Fair CLR 78.1 72.5 83% 81 29.96 0.0
14 23:15 S 10 10.00 Fair CLR 78.8 72.5 81% 82 29.95 0.0
14 22:55 S 10 10.00 Fair CLR 78.8 72.3 81% 82 29.95 0.0
14 22:35 S 10 10.00 Fair CLR 78.8 72 80% 82 29.95 0.0
14 22:15 S 7 10.00 Fair CLR 77.9 72.7 84% 80 29.96 0.0
14 21:55 S 8 10.00 Fair CLR 79.2 72.7 81% 83 29.96 0.0
14 21:35 S 8 10.00 Partly Cloudy SCT110 79.5 72.9 80% 83 29.96 0.0
14 21:15 S 7 10.00 Fair CLR 78.6 73.2 84% 82 29.96 0.0
14 20:55 S 6 10.00 Fair CLR 79.2 72.9 81% 83 29.96 0.0
14 20:35 S 9 10.00 Fair CLR 79.7 72.7 79% 84 29.96 0.0
14 20:15 S 7 10.00 Fair CLR 79.7 73.9 83% 84 29.96 0.0
14 19:55 S 8 10.00 Fair CLR 81 73.6 78% 86 29.96 0.0
14 19:35 S 8 10.00 Fair CLR 83.1 72.9 71% 89 29.96 0.0
14 19:15 S 10 10.00 Fair CLR 84.9 71.8 65% 91 29.96 0.0
14 18:55 S 10 10.00 Fair CLR 85.1 72.7 89.2 84.2 66% 92 29.96 0.0
14 18:35 S 12 10.00 Fair CLR 84.7 73.4 69% 92 29.96 0.0
14 18:15 S 9 10.00 Fair CLR 84.9 73 68% 92 29.97 0.0
14 17:55 S 9 10.00 Fair CLR 84.2 72 67% 90 29.97 0.0
14 17:35 S 10 G 16 10.00 Fair CLR 86.9 70.7 59% 92 29.98 0.0
14 17:15 S 14 G 17 10.00 Fair CLR 88.2 71.6 58% 95 29.98 0.0
14 16:55 S 10 10.00 Fair CLR 88.3 73 61% 96 29.98 0.0
14 16:35 S 12 10.00 Fair CLR 88.7 73.6 61% 97 29.99 0.0
14 16:15 S 12 10.00 Fair CLR 89.2 75.2 63% 100 30 0.0
14 15:55 S 9 10.00 Fair CLR 88.9 74.8 63% 99 30 0.0
14 15:35 S 8 10.00 Fair CLR 89.2 75.9 65% 101 30 0.0
14 15:15 S 6 10.00 Fair CLR 87.8 75.7 68% 98 30.01 0.0
14 14:55 S 5 10.00 Fair CLR 86.7 74.8 68% 96 30.01 0.0
14 14:35 SW 6 10.00 Fair CLR 85.3 73.8 69% 93 30.01 0.0
14 14:15 SW 8 10.00 Fair CLR 85.1 73 67% 92 30.01 0.0
14 13:55 SW 6 10.00 Fair CLR 85.1 74.1 70% 93 30.03 0.0
14 13:35 SW 5 10.00 Fair CLR 84.7 74.1 71% 92 30.03 0.0
14 13:15 SW 6 10.00 Fair CLR 86.2 72.7 64% 93 30.05 0.0
14 12:55 W 7 10.00 Fair CLR 85.3 73.2 86.7 72.5 67% 92 30.06 0.0
14 12:35 NW 12 10.00 Fair CLR 85.6 72.9 66% 92 30.08 0.0
14 12:15 W 6 10.00 Fair CLR 85.1 73 67% 92 30.09 0.0
14 11:55 W 9 10.00 Fair CLR 85.5 72.3 65% 92 30.08 0.0
14 11:35 SW 9 10.00 Fair CLR 85.8 72 63% 92 30.08 0.0
14 11:15 S 9 10.00 Fair CLR 86 72.9 65% 93 30.08 0.0
14 10:55 SW 9 10.00 Fair CLR 85.6 73.2 67% 93 30.09 0.0
14 10:35 S 9 10.00 Fair CLR 84.7 73 68% 91 30.08 0.0
14 10:15 SW 10 10.00 Fair CLR 83.5 72 68% 89 30.09 0.0
14 09:55 SW 9 10.00 Fair CLR 82.9 72.1 70% 88 30.09 0.0
14 09:35 SW 8 10.00 Fair CLR 81.9 71.8 72% 87 30.08 0.0
14 09:15 SW 12 10.00 Fair CLR 80.8 71.8 74% 85 30.08 0.0
14 08:55 SW 12 10.00 Fair CLR 79.9 72.1 77% 84 30.08 0.0
14 08:35 SW 9 10.00 Fair CLR 78.4 71.6 80% 81 30.1 0.0
14 08:15 SW 7 10.00 Fair CLR 76.5 72 86% 77 30.1 0.0
14 07:55 SW 7 10.00 Fair CLR 75.2 71.2 88% 75 30.1 0.0
14 07:35 SW 6 10.00 Fair CLR 74.3 71.2 90% 30.1 0.0
14 07:15 S 6 7.00 Fair CLR 73.4 71.1 92% 30.09 0.0
14 06:55 S 5 5.00 Fog/Mist CLR 72.3 70.5 72.5 71.1 94% 30.09 0.0
14 06:35 S 6 5.00 Fog/Mist CLR 71.6 70 95% 30.08 0.0
14 06:15 S 6 5.00 Fog/Mist CLR 71.2 69.6 95% 30.08 0.0
14 05:55 S 5 5.00 Fog/Mist CLR 71.6 69.8 94% 30.07 0.0
14 05:35 S 6 5.00 Fog/Mist CLR 71.6 70 95% 30.06 0.0
14 05:15 S 7 5.00 Fog/Mist CLR 71.4 69.8 95% 30.06 0.0
14 04:55 S 6 5.00 Fog/Mist CLR 71.6 69.8 94% 30.06 0.0
14 04:35 S 6 5.00 Fog/Mist CLR 71.6 70 95% 30.06 0.0
14 04:15 S 7 5.00 Fog/Mist CLR 71.6 70 95% 30.06 0.0
14 03:55 S 7 5.00 Fog/Mist CLR 71.6 69.8 94% 30.06 0.0
14 03:35 S 7 5.00 Fog/Mist CLR 71.4 69.3 93% 30.07 0.0
14 03:15 SE 5 7.00 Fair CLR 71.6 69.4 93% 30.08 0.0
14 02:55 S 5 7.00 Fair CLR 71.2 69.1 93% 30.09 0.0
14 02:35 S 6 10.00 Fair CLR 71.6 69.1 92% 30.08 0.0
14 02:15 S 7 10.00 Fair CLR 71.1 68.5 92% 30.09 0.0
14 01:55 S 7 10.00 Fair CLR 71.6 68.4 90% 30.09 0.0
14 01:35 S 6 10.00 Fair CLR 71.6 68.4 90% 30.1 0.0
14 01:15 S 6 10.00 Fair CLR 71.6 68.5 90% 30.11 0.0
14 00:55 S 6 10.00 Fair CLR 72.5 68.5 83.7 72.5 87% 30.11 0.0
14 00:35 S 7 10.00 Fair CLR 72.5 68.5 87% 30.11 0.0
14 00:15 S 7 10.00 Fair CLR 72.7 68.9 88% 30.12 0.0
13 23:55 S 7 10.00 Fair CLR 72.9 68.7 87% 30.12 0.0
13 23:35 S 7 10.00 Fair CLR 73.4 68.9 86% 30.12 0.0
13 23:15 S 7 10.00 Fair CLR 73.8 69.8 88% 30.13 0.0
13 22:55 S 7 10.00 Fair CLR 74.7 70.3 86% 30.12 0.0
13 22:35 S 8 10.00 Fair CLR 75.6 71.2 87% 76 30.12 0.0
13 22:15 S 8 10.00 Fair CLR 75.7 72.5 90% 76 30.12 0.0
13 21:55 S 7 10.00 Fair CLR 76.6 72.5 87% 78 30.12 0.0
13 21:35 S 7 10.00 Fair CLR 76.6 72.3 87% 78 30.11 0.0
13 21:15 SE 6 10.00 Fair CLR 77 72.1 85% 78 30.1 0.0
13 20:55 SE 5 10.00 Fair CLR 77.5 71.6 82% 79 30.1 0.0
13 20:35 SE 5 10.00 Fair CLR 79.2 71.6 78% 82 30.1 0.0
13 20:15 SE 6 10.00 Fair CLR 79.7 71.8 77% 83 30.1 0.0
13 19:55 S 6 10.00 Fair CLR 80.6 72 75% 85 30.1 0.0
13 19:35 S 6 10.00 Fair CLR 81.7 72.5 74% 87 30.11 0.0
13 19:15 S 7 10.00 Fair CLR 82.6 71.4 69% 87 30.1 0.0
13 18:55 S 9 10.00 Fair CLR 83.7 70.7 87.8 83.7 65% 88 30.1 0.0
13 18:35 S 6 10.00 Fair CLR 84.6 72 66% 90 30.11 0.0
13 18:15 S 10 10.00 Fair CLR 85.1 70.9 63% 90 30.1 0.0
13 17:55 S 8 10.00 Fair CLR 86 71.1 61% 92 30.1 0.0
13 17:35 SW 6 10.00 Fair CLR 86.4 69.8 58% 91 30.11 0.0
13 17:15 SW 7 10.00 Fair CLR 86.9 70.9 59% 92 30.11 0.0
13 16:55 SW 7 10.00 Fair CLR 87.1 72 61% 94 30.11 0.0
13 16:35 SW 8 10.00 Fair CLR 87.3 69.8 56% 92 30.11 0.0
13 16:15 SW 6 10.00 Fair CLR 87.4 70.7 58% 93 30.12 0.0
13 15:55 S 6 10.00 Fair CLR 87.1 71.4 60% 93 30.12 0.0
13 15:35 SW 12 10.00 Fair CLR 87.3 71.2 59% 93 30.13 0.0
13 15:15 SW 9 10.00 Fair CLR 87.3 71.4 59% 93 30.14 0.0
13 14:55 Calm 10.00 Fair CLR 87.1 71.2 59% 93 30.14 0.0
13 14:35 SW 6 10.00 Partly Cloudy SCT035 SCT045 87.1 72.5 62% 94 30.14 0.0
13 14:15 SW 7 10.00 Mostly Cloudy SCT033 SCT039 BKN046 86 71.6 62% 92 30.15 0.0
13 13:55 SW 7 10.00 Partly Cloudy SCT032 SCT046 SCT060 86.4 73 65% 94 30.16 0.0
13 13:35 W 6 10.00 Partly Cloudy SCT037 SCT043 84.7 72.9 68% 91 30.16 0.0
13 13:15 SW 8 10.00 Partly Cloudy SCT032 86.2 72 63% 92 30.16 0.0
13 12:55 SW 9 10.00 Partly Cloudy SCT032 86 72.7 86 70.5 65% 93 30.17 0.0
13 12:35 S 3 10.00 Fair CLR 85.3 72.1 65% 91 30.18 0.0
13 12:15 S 10 10.00 Partly Cloudy SCT029 84.7 72 66% 91 30.18 0.0
13 11:55 SW 10 G 16 10.00 Partly Cloudy SCT029 84.4 72.5 68% 90 30.19 0.0
13 11:35 SW 9 10.00 Fair CLR 83.7 70.3 64% 88 30.2 0.0
13 11:15 SW 8 10.00 Fair CLR 83.3 73 71% 89 30.2 0.0
13 10:55 SW 9 10.00 Fair CLR 81.9 72 72% 87 30.19 0.0
13 10:35 S 10 10.00 Fair CLR 81.3 71.6 72% 86 30.18 0.0
13 10:15 S 9 10.00 Fair CLR 81 72 74% 85 30.18 0.0
13 09:55 S 9 10.00 Fair CLR 80.1 71.4 75% 84 30.19 0.0
13 09:35 S 10 10.00 Fair CLR 78.8 70.9 77% 82 30.19 0.0
13 09:15 S 12 10.00 Fair CLR 77.7 69.8 77% 80 30.19 0.0
13 08:55 S 8 10.00 Fair CLR 77 70.2 80% 79 30.19 0.0
13 08:35 S 10 10.00 Fair CLR 75.4 70 83% 76 30.19 0.0
13 08:15 S 9 10.00 Fair CLR 74.3 69.4 85% 30.19 0.0
13 07:55 S 9 10.00 Fair CLR 73.4 69.6 88% 30.19 0.0
13 07:35 S 7 10.00 Fair CLR 72.7 69.8 91% 30.19 0.0
13 07:15 S 7 10.00 Fair CLR 71.6 68.9 91% 30.18 0.0
13 06:55 SE 6 10.00 Fair CLR 70.3 67.6 70.9 67.3 91% 30.18 0.0
13 06:35 SE 6 10.00 Fair CLR 69.4 67.1 92% 30.18 0.0
13 06:15 S 5 10.00 Fair CLR 68.9 66.7 93% 30.18 0.0
13 05:55 SE 6 7.00 Fair CLR 68.5 66.7 94% 30.18 0.0
13 05:35 SE 5 7.00 Fair CLR 68.2 66.6 95% 30.18 0.0
13 05:15 Calm 7.00 Fair CLR 68.4 66.6 94% 30.17 0.0
13 04:55 SE 5 7.00 Fair CLR 68.4 66.6 94% 30.16 0.0
13 04:35 SE 3 7.00 Fair CLR 68.5 66.7 94% 30.16 0.0
13 04:15 SE 5 7.00 Fair CLR 67.8 66.2 95% 30.15 0.0
13 03:55 Calm 7.00 Fair CLR 67.6 66 95% 30.15 0.0
13 03:35 SE 3 7.00 Fair CLR 68 66.2 94% 30.15 0.0
13 03:15 Calm 10.00 Fair CLR 69.1 67.1 93% 30.15 0.0
13 02:55 SE 5 10.00 Fair CLR 68.9 67.1 94% 30.14 0.0
13 02:35 SE 5 10.00 Fair CLR 67.3 65.7 95% 30.14 0.0
13 02:15 Calm 10.00 Fair CLR 68 66.4 95% 30.14 0.0
13 01:55 Calm 10.00 Fair CLR 67.8 66 94% 30.14 0.0
13 01:35 Calm 10.00 Fair CLR 68.2 66.2 93% 30.14 0.0
13 01:15 Calm 10.00 Fair CLR 69.6 66.4 90% 30.14 0.0
13 00:55 SE 5 10.00 Fair CLR 70.5 66.7 82.2 70.2 88% 30.15 0.0
13 00:35 SE 5 10.00 Fair CLR 71.1 66.9 87% 30.15 0.0
13 00:15 SE 5 10.00 Fair CLR 71.1 67.3 88% 30.15 0.0
12 23:55 SE 3 10.00 Fair CLR 71.6 67.5 87% 30.15 0.0
12 23:35 Calm 10.00 Fair CLR 71.8 67.8 87% 30.15 0.0
12 23:15 SE 3 10.00 Fair CLR 71.6 67.6 87% 30.15 0.0
12 22:55 SE 5 10.00 Fair CLR 72 67.8 87% 30.14 0.0
12 22:35 Calm 10.00 Fair CLR 71.8 68.4 89% 30.14 0.0
12 22:15 Calm 10.00 Fair CLR 72.5 68 86% 30.14 0.0
12 21:55 S 3 10.00 Fair CLR 73.8 68 82% 30.13 0.0
12 21:35 Calm 10.00 Fair CLR 74.7 67.6 79% 30.13 0.0
12 21:15 Calm 10.00 Fair CLR 74.8 68.2 80% 30.12 0.0
12 20:55 Calm 10.00 Fair CLR 74.7 69.3 83% 30.11 0.0
12 20:35 S 5 10.00 Mostly Cloudy SCT041 BKN055 76.3 70.7 83% 77 30.11 0.0
12 20:15 S 5 10.00 Partly Cloudy SCT043 76.5 70.2 81% 78 30.12 0.0
12 19:55 S 7 10.00 Partly Cloudy SCT047 79 70.5 75% 82 30.11 0.0
Date Time (cdt) Wind (mph) Vis. (mi.) Weather Sky Cond. Air Dwpt Max. Min. Relative Humidity Wind Chill (°F) Heat Index (°F) altimeter (in) sea level (mb) 1 hr 3 hr 6 hr
6 hour
Temperature (ºF) Pressure Precipitation (in)